www.pogodaiklimat.ru

Погода и климат >> Архив погоды >> Россия >> Иркутская область >> Киренск


АРХИВ ПОГОДЫ в Киренске

Время (UTC), дата Ветер
(напр.,м/с)
 
Видим.   Явления Облачность Т
(С)
Тd
(С)
f
(%)
Тe
(С)
Тes
(С)
Комфортность P
(гПа)
Po
(гПа)
Тmin
(С)
Tmax
(С)
R
(мм)
R24
(мм)
S
(см)
00 17.01 ЮЗ 1 н/о {ливн. осадки} 8/3 600 м
[Sc diur, vesp Ac trans Ci fib]
-15.9 -17.5 87 -19 -19 1022.8 988.4 -19.9 1 44
03 17.01 ЮЗ 1 20 км слаб. снег 10/4 600 м
[Sc diur, vesp Ac trans Cs]
-17.6 -19.4 86 -20 -20 1024.9 990.1
06 17.01 ЮЗ 2 20 км слаб. ливневой снег 10/8 600 м
[Cb cap Ac trans Cs]
-12.8 -15.1 83 -17 -17 1024.5 990.4
09 17.01 Ю 1 20 км слаб. ливневой снег 10/6 600 м
[Cb cap Ac trans Cs]
-15.0 -16.4 89 -18 -18 1025.4 991.0
12 17.01 Ю 2 н/о {ливн. осадки} 10/6 600 м
[Cb cap Ac trans Cs]
-17.0 -18.6 87 -22 -22 1026.6 991.9 -12.6 0.2
18 17.01 Ю 3 н/о слаб. ливневой снег 10/8 600 м
[Cb cap Ac As]
-13.4 -15.2 86 -20 -20 1026.1 991.9
00 18.01 Ю 2 н/о слаб. ливневой снег 10/10 600 м
[Cb cap]
-12.6 -14.1 89 -17 -17 1027.1 993.0 -18.2 2 45
06 18.01 З 3 20 км слаб. ливневой снег 10/4 600 м
[Cb cap Ac trans Ci fib]
-12.4 -15.7 76 -18 -18 1030.8 996.6
09 18.01 ЮЗ 1 50 км 5/0
[Ci fib]
-18.0 -20.1 84 -21 -21 1033.3 998.2
12 18.01 З 1 н/о ясно -25.0 -27.4 80 -29 -29 1036.3 1000.1 -12.1 0.2
15 18.01 З 1 н/о ясно -27.8 -30.4 78 -32 -32 опасность
обморожения
1037.4 1000.8
18 18.01 СЗ 1 н/о 8/0
[Ci fib]
-26.8 -29.4 79 -31 -31 опасность
обморожения
1036.9 1000.5
21 18.01 Ю 1 н/о 10/0
[Ci fib]
-20.7 -22.8 83 -24 -24 1034.7 999.2
00 19.01 ЮЗ 2 н/о слаб. ливневой снег 10/5 600 м
[Cb cap Ci fib]
-14.1 -15.8 87 -19 -19 1032.3 997.8 -28.5 0.3 46
03 19.01 ЮЗ 4 4000 м слаб. ливневой снег 10/6 600 м
[Cb cap Ac As]
-12.2 -14.6 82 -19 -19 1030.9 996.7
06 19.01 Ю 5 20 км слаб. ливневой снег {метель} 10/6 600 м
[Cb cap Ac trans Cs]
-10.6 -13.7 78 -18 -18 1028.6 994.7
09 19.01 Ю 4
{10}
50 км позёмок {ливн. осадки} 10/6 600 м
[Cb cap Ac trans Ci fib]
-10.0 -13.4 76 -17 -17 1026.2 992.5
12 19.01 Ю 4
{10}
н/о слаб. ливневой снег {метель} 10/8 600 м
[Cb cap Ac As]
-10.7 -14.2 75 -18 -18 1024.6 990.8 -10.0 0.3
15 19.01 Ю 3 н/о 5/0
[Ci fib]
-11.8 -14.8 78 -18 -18 1021.9 988.0
18 19.01 Ю 3 н/о 10/4 600 м
[Cb cap Ac trans Ci fib]
-9.8 -13.6 74 -16 -16 1018.0 984.5
21 19.01 Ю 4 н/о 10/6 600 м
[Cb cap Ac trans Ci fib]
-9.0 -13.0 73 -16 -16 1014.7 981.5
00 20.01 Ю 5 н/о ливневой снег {метель} 10/10 600 м
[Cb cap]
-8.9 -10.3 90 -17 -17 1014.0 980.7 -12.8 0.8 46
03 20.01 Ю 4 20 км слаб. ливневой снег {метель} 10/6 600 м
[Cb cap Ac trans Ci fib]
-7.5 -9.0 89 -14 -14 1016.4 983.3
06 20.01 Ю 5 4000 м слаб. ливневой снег {метель} 10/10 600 м
[Cb cap]
-5.7 -7.9 84 -13 -13 1016.8 983.9
09 20.01 Ю 3 20 км слаб. ливневой снег {метель} 10/10 600 м
[Cb cap]
-5.5 -7.4 86 -11 -11 1017.0 984.2
12 20.01 Ю 4 н/о слаб. ливневой снег {метель} 10/10 600 м
[Cb cap]
-5.3 -7.5 84 -12 -12 1015.9 983.1 -5.3 0.5
15 20.01 Ю 3 н/о {ливн. осадки} 10/8 600 м
[Cb cap Ac As]
-5.6 -7.8 84 -11 -11 1012.9 980.1
18 20.01 ЮЗ 5
{10}
н/о ливневой снег 10/10 600 м
[Cb cap]
-5.7 -7.2 89 -13 -13 1009.1 976.4
21 20.01 ЮЗ 3 н/о {ливн. осадки} 10/6 600 м
[Cb cap Ac As]
-4.6 -8.4 75 -10 -10 1008.1 975.6
00 21.01 ЮЗ 3 н/о {ливн. осадки} 10/4 600 м
[Cb cap Ac trans Ci fib]
-6.0 -9.3 77 -11 -11 1010.6 977.8 -6.0 0.4 46
03 21.01 ЮЗ 3 20 км слаб. ливневой снег 10/5 600 м
[Cb cap Ac trans Ci fib]
-6.0 -9.4 77 -11 -11 1012.2 979.3 -6.2
06 21.01 З 3
{14}
20 км в посл. час ливневой снег {метель} 10/6 600 м
[Cb cap Ac trans Ci fib]
-6.7 -10.1 77 -12 -12 1014.1 981.2
09 21.01 З 3
{10}
50 км 8/3 600 м
[Cb cap Ci fib]
-8.6 -13.3 69 -14 -14 1017.6 984.3
12 21.01 ЮЗ 2 н/о 4/0
[Ci fib]
-17.6 -28.8 37 -23 -23 1021.4 986.8 -4.9 0.1
15 21.01 З 1 н/о ясно -24.2 -26.5 81 -28 -28 1023.6 988.0
18 21.01 ЮЗ 2 н/о 3/0
[Ci fib]
-17.6 -18.8 90 -23 -23 1021.4 986.8 -4.9 0.1
21 21.01 штиль 0 н/о ясно -29.7 -33.0 73 -30 -30 1027.1 990.6
00 22.01 ЮЗ 1 н/о 4/0
[Ac trans Ci fib]
-31.9 -35.1 73 -36 -36 опасность
обморожения
1029.0 992.1 -32.6 47
03 22.01 штиль 0 20 км 3/0
[Ci fib]
-29.7 -32.7 75 -30 -29 1030.5 993.9 -33.0
06 22.01 штиль 0 20 км 4/0
[Ci fib]
-23.3 -25.9 79 -23 -22 1030.1 994.4
09 22.01 штиль 0 20 км 8/0
[Ac trans Ci fib]
-25.7 -28.3 79 -26 -26 1030.9 994.8
12 22.01 штиль 0 н/о 10/0
[Ac trans Ci fib]
-26.9 -30.0 75 -27 -27 1030.8 994.6 -21.9
15 22.01 штиль 0 н/о 10/0
[Ac trans Cs]
-23.7 -26.1 81 -24 -24 1029.3 993.6
18 22.01 штиль 0 н/о слаб. снег 10/0
[Ac trans Cs]
-21.6 -23.8 82 -22 -22 1028.2 992.8
21 22.01 штиль 0 н/о слаб. снег 10/3 600 м
[Sc Ac As]
-20.3 -22.3 84 -20 -20 1027.3 992.1
00 23.01 штиль 0 н/о слаб. снег 10/0
[Ac trans Cs]
-20.2 -22.3 83 -20 -20 1028.4 993.2 -27.2 1 47
03 23.01 штиль 0 20 км слаб. снег 10/3 600 м
[Sc Ac trans Cs]
-20.0 -22.1 83 -20 -20 1031.8 996.5
06 23.01 штиль 0 10 км слаб. снег 10/5 600 м
[Sc Ac trans Cs]
-16.8 -19.6 79 -17 -17 1033.5 998.6
09 23.01 штиль 0 20 км в посл. час снег 10/3 600 м
[Sc Ac trans Cs]
-18.5 -20.1 87 -19 -19 1036.1 1000.9
12 23.01 СЗ 1 н/о {снег} 10/0
[Ac trans Cs]
-21.8 -24.3 80 -25 -25 1038.6 1002.8 -15.2 0.3
15 23.01 штиль 0 н/о слаб. ливневой снег 10/5 600 м
[Cb cap Ac trans Ci fib]
-19.4 -21.3 85 -19 -19 1038.5 1003.1
18 23.01 штиль 0 н/о слаб. ливневой снег 10/6 600 м
[Cb cap Ac As]
-16.6 -18.3 87 -17 -17 1038.3 1003.3
21 23.01 штиль 0 н/о слаб. ливневой снег 10/10 600 м
[Cb cap]
-14.6 -16.0 89 -15 -15 1037.7 1003.0

 

Местоположение метеостанции Киренск (Иркутская область, Россия): широта 57.77 долгота 108.00 высота над уровнем моря 258 м.

В архиве по умолчанию представлена погода в Киренске за последнюю неделю. Архивные данные за месяц целиком и за предыдущие месяцы, начиная с января 2011 года, Вы можете получить, выбрав интересующий диапазон дат из раскрывающегося списка и нажав кнопку "Ввод!".


*Определитесь, кто Вы:
робот инопланетянин человек

Внимание! Время в таблицах - всемирное. Для получения местного времени необходимо прибавить поправку, которая равна 8 ч.

Смотрите также архив погоды в соседних городах и на ближайших метеорологических станциях:

Погода в Токме (Иркутская область, Россия) (145 км)
Погода в Казачинске (Иркутская область, Россия) (163 км)
Погода в Усть-Куте (Иркутская область, Россия) (171 км)
Погода в Максимово (Иркутская область, Россия) (200 км)
Погода в Ике (Иркутская область, Россия) (201 км)
Погода в Даване (Бурятия, Россия) (230 км)
Погода в Орлинге (Иркутская область, Россия) (233 км)
Погода в Нижнеангарске (Бурятия, Россия) (239 км)
Погода в Преображенке (Иркутская область, Россия) (254 км)
Погода в Новой Игирме (Иркутская область, Россия) (256 км)

Пояснения к столбцам:

Ветер - указаны скорость ветра в м/с - средняя за 10 мин, порывы в срок и между сроками (в фигурных скобках) и направление, откуда дует ветер: С - северный, СВ - северо-восточный, В - восточный, ЮВ - юго-восточный, Ю - южный, ЮЗ - юго-западный, З - западный, СЗ - северо-западный.
Видимость - горизонтальная дальность видимости в метрах или километрах. При видимости от 1 до 10 км при отсутствии осадков обычно наблюдается дымка, при ухудшении видимости до 1 км и менее - туман. В сухую погоду видимость может ухудшаться дымом, пылью или мглою.
Явления - указаны атмосферные явления, наблюдавшиеся в срок или в последний час перед сроком; фигурными скобками обозначены явления, наблюдавшиеся между сроками (за 1-3 часа до срока); квадратными скобками обозначены град или гололедные отложения с указанием их диаметра в мм.
Облачность - указаны через наклонную черту общая и нижняя облачность в баллах и высота нижней границы облаков в метрах; квадратными скобками обозначены формы облаков: Ci - перистые, Cs - перисто-слоистые, Cc - перисто-кучевые, Ac - высококучевые, As - высокослоистые, Sc - слоисто-кучевые, Ns - слоисто-дождевые, Cu - кучевые, Cb - кучево-дождевые. Подробнее классификацию облаков см. в Атласе облаков (PDF).
T - Температура воздуха - температура, измеренная на высоте 2 м над землей.
Td - Температура точки росы - температура, при понижении до которой содержащийся в воздухе водяной пар достигнет насыщения.
f - Относительная влажность воздуха - влажноcть воздуха, измеренная на высоте 2 м над землей.
Te - Эффективная температура - температура, которую ощущает одетый по сезону человек в тени. Характеристика душности погоды. При расчете учитывается влияние влажности воздуха и скорости ветра на теплоощущения человека.
Tes - Эффективная температура на солнце - температура, которую ощущает человек, с поправкой на солнечный нагрев. Характеристика знойности погоды. Зависит от высоты солнца над горизонтом, облачности и скорости ветра. Ночью, в пасмурную погоду, а также при ветре 12 м/с и более поправка равна нулю.
P - Атмосферное давление - приведенное к уровню моря атмосферное давление.
Po - Атмосферное давление - измеренное на уровне метеостанции атмосферное давление.
Tmin - Минимальная температура - минимум температуры воздуха на высоте 2 м над землей.
Tmax - Максимальная температура - максимум температуры воздуха на высоте 2 м над землей.
R - Количество осадков - Количество выпавших осадков за период времени, мм. При наведении курсора мыши на число - период времени, за который выпало указанное количество осадков.
R24 - Количество осадков - Количество выпавших осадков за 24 часа, мм.
S - Снежный покров - Высота снежного покрова, см. При наведении курсора мыши на число - состояние снежного покрова и степень покрытия местности в баллах.